Home   Weather   Eastbourne   Past weeks

Flag for United Kingdom Past Weather in Eastbourne, England, United Kingdom — Yesterday and Last 2 Weeks

Now
54 °F

Fog.


Feels Like: 54 °F
Forecast: 56 / 69 °F
Wind: 2 mph from North

Location: Herstmonceux

Current Time: Aug 31, 2016 at 5:24:42 AM

Latest Report: Aug 31, 2016 at 4:00 AM


Visibility: 4 mi

Pressure: 30.14 "Hg

Humidity: 97%

Dew Point: 53 °F

Location of EastbourneLocation

Past Weather in Eastbourne — Graph

°F

Eastbourne Temperature Yesterday

Maximum temperature yesterday: 73 °F (at 2:00 PM)
Minimum temperature yesterday: 51 °F (at 6:00 AM)
Average temperature yesterday: 59 °F

High & Low Weather Summary for the Past Weeks

 TemperatureHumidityPressure
High84 °F (Aug 23, 5:00 PM)100% (Aug 23, 4:00 AM)30.31 "Hg (Aug 23, 4:00 AM)
Low51 °F (Aug 30, 6:00 AM)47% (Aug 16, 2:00 PM)29.72 "Hg (Aug 19, 7:00 PM)
Average66 °F82%30.01 "Hg
* Reported Aug 16 4:00 AM — Aug 31 4:00 AM, Eastbourne, Weather by CustomWeather, © 2016

Note: Actual official high and low records may vary slightly from our data, if they occured in-between our weather recording intervals... More about our weather records

Advertising

Eastbourne Weather History for the Previous 24 Hours

Scroll right to see more
 ConditionsComfort  
Time TempWeatherWind HumidityBarometerVisibility
4:00 AM
Wed, Aug 31
54 °FFog.2 mph97%30.14 "Hg4 mi
3:00 AM54 °FCool.2 mph96%30.15 "Hg7 mi
2:00 AM54 °FCool.2 mph95%30.16 "Hg10 mi
1:00 AM54 °FCool.2 mph97%30.17 "Hg10 mi
12:00 AM55 °FCool.3 mph97%30.19 "Hg9 mi
11:00 PM
Tue, Aug 30
55 °FCool.2 mph94%30.20 "Hg12 mi
10:00 PM57 °FCool.2 mph91%30.21 "Hg11 mi
9:00 PM59 °FCool.1 mph85%30.21 "Hg16 mi
8:00 PM63 °FMild.No wind73%30.21 "Hg22 mi
2:00 PM73 °FMild.6 mph62%30.27 "Hg28 mi
1:00 PM71 °FMild.6 mph68%30.29 "Hg12 mi
12:00 PM70 °FMild.5 mph74%30.29 "Hg17 mi
11:00 AM65 °FMild.5 mph98%30.30 "Hg7 mi
10:00 AM61 °FDuststorm.2 mph99%30.31 "Hg0 mi
9:00 AM60 °FDuststorm.1 mph100%30.30 "Hg0 mi
7:00 AM53 °FDuststorm.No wind99%30.28 "Hg1 mi
6:00 AM51 °FCool.2 mph99%30.28 "Hg3 mi
Weather by CustomWeather, © 2016

See weather overviewHow to use our weather pages